This is the latest recevied weather packets stored in our database for station/object ac2ev. If no packets are shown the sender has not sent any weather packets the latest 1 day(s).
| Time | Temp. | Humidity | Pressure | Rain* | Wind** | Luminosity | Snow |
|---|---|---|---|---|---|---|---|
| 1778070473 | 6.11° C | 92% | 1008 hPa | 0.76 mm | - | - | - |
| 1778068959 | 6.11° C | 92% | 1008.3 hPa | 0.76 mm | - | - | - |
| 1778066857 | 6.11° C | 92% | 1008.3 hPa | 1.02 mm | - | - | - |
| 1778065052 | 6.11° C | 92% | 1008 hPa | 1.78 mm | - | - | - |
| 1778064452 | 6.11° C | 92% | 1007.6 hPa | 1.52 mm | - | - | - |
| 1778064151 | 6.11° C | 92% | 1007.8 hPa | 1.78 mm | - | - | - |
| 1778063850 | 6.11° C | 92% | 1008 hPa | 1.78 mm | - | - | - |
| 1778063550 | 6.11° C | 92% | 1008.1 hPa | 1.52 mm | - | - | - |
| 1778063250 | 6.11° C | 92% | 1008.2 hPa | 1.78 mm | - | - | - |
| 1778062350 | 6.11° C | 92% | 1008.2 hPa | 1.27 mm | - | - | - |
| 1778062050 | 6.11° C | 92% | 1008.3 hPa | 1.02 mm | - | - | - |
| 1778060550 | 6.67° C | 92% | 1008.4 hPa | 0.76 mm | - | - | - |
| 1778059051 | 6.67° C | 92% | 1008.2 hPa | 0.76 mm | - | - | - |
| 1778058450 | 6.67° C | 92% | 1008 hPa | 0.76 mm | - | - | - |
| 1778058152 | 6.67° C | 92% | 1007.9 hPa | 0.76 mm | - | - | - |
| 1778057850 | 6.67° C | 92% | 1008 hPa | 0.76 mm | - | - | - |
| 1778057250 | 7.22° C | 92% | 1008 hPa | 1.02 mm | - | - | - |
| 1778056951 | 6.67° C | 92% | 1008 hPa | 1.02 mm | - | - | - |
| 1778056351 | 6.67° C | 92% | 1008.2 hPa | 1.02 mm | - | - | - |
| 1778055751 | 7.22° C | 92% | 1008.4 hPa | 1.27 mm | - | - | - |
| 1778055150 | 7.22° C | 92% | 1008.3 hPa | 1.27 mm | - | - | - |
| 1778054850 | 7.22° C | 92% | 1008.3 hPa | 1.52 mm | - | - | - |
| 1778054551 | 7.22° C | 92% | 1008.1 hPa | 1.52 mm | - | - | - |
| 1778054250 | 7.22° C | 92% | 1007.7 hPa | 1.52 mm | - | - | - |
| 1778053951 | 7.22° C | 92% | 1008.1 hPa | 1.78 mm | - | - | - |
* Rain latest hour (hover to see other rain measurements)
** Current wind speed in m/s (hover to see current wind gust speed)